[[{"header":{"parameterUnit":"m.s-1","parameterCategory":1,"la1":30.2992,"la2":30.254,"lo1":-89.0895,"lo2":-89.0443,"dy":0.0025,"dx":0.0025,"nx":19,"ny":19,"refTime":"2026-03-10T09:00:00:Z","depth":0,"parameterNumber":2,"parameterNumberName":"U-component_of_WINDS"},"data":[0,0,0,-2.0555,-2.0556,-2.0646,-2.0646,-2.0758,-2.0759,0,0,0,0,0,0,0,0,0,0,0,-2.0525,-2.0526,-2.0554,-2.0557,-2.0646,-2.0646,-2.0758,-2.0759,0,0,0,0,0,0,0,0,0,0,0,-2.0525,-2.0526,-2.0527,-2.0557,-2.0646,-2.0646,-2.0757,-2.0691,0,0,0,0,0,0,0,0,0,0,-2.0605,-2.0575,-2.0526,-2.0527,-2.0557,-2.0646,-2.0646,-2.0688,-2.0695,-2.0716,0,-2.0732,0,-2.0747,-2.0766,-2.0766,0,0,0,-2.0559,-2.0569,-2.0595,-2.0527,-2.0558,-2.0646,-2.0606,-2.0692,-2.07,-2.0725,-2.0734,-2.0738,-2.0749,-2.0767,-2.0767,-2.0873,-2.0873,0,0,-2.0554,-2.054,-2.059,-2.06,-2.0585,-2.0603,-2.0609,-2.0697,-2.0706,-2.0734,-2.0741,-2.0751,-2.0767,-2.0768,-2.0872,-2.0873,0,0,0,-2.0538,-2.0537,-2.0561,-2.0596,-2.0612,-2.0606,-2.0612,-2.0702,-2.0711,-2.0742,-2.0752,-2.0768,-2.0769,-2.0872,-2.0873,-2.0876,0,0,0,-2.0535,-2.0527,-2.0559,-2.0551,-2.061,-2.0658,-2.0615,-2.0705,-2.0715,-2.0751,-2.0768,-2.077,-2.0872,-2.0872,-2.0875,-2.088,0,0,0,-2.052,-2.0526,-2.0537,-2.055,-2.0588,-2.0657,-2.0671,-2.0707,-2.0721,-2.0766,-2.0771,-2.0871,-2.0872,-2.0874,-2.0879,-2.0903,0,0,0,-2.0501,-2.0541,-2.0537,-2.0586,-2.0587,-2.0658,-2.0671,-2.0725,-2.0764,-2.0768,-2.0872,-2.0873,-2.0874,-2.0878,-2.0902,-2.0919,-2.0926,0,0,-2.0544,-2.0546,-2.0576,-2.0575,-2.0643,-2.0646,-2.0715,-2.0765,-2.0783,-2.0842,-2.0845,-2.0876,-2.0879,-2.0903,-2.0968,-2.0973,0,0,0,-2.0584,-2.0606,-2.0627,-2.0662,-2.07,-2.0733,-2.0774,-2.0792,-2.0843,-2.081,-2.0892,-2.0894,-2.0909,-2.0918,-2.0922,-2.0935,-2.0876,-2.0876,-2.0876,-2.0625,-2.0644,-2.0695,-2.0725,-2.0759,-2.08,-2.083,-2.0862,-2.0873,-2.0892,-2.0909,-2.0946,-2.0956,-2.0959,-2.0973,-2.0921,-2.0921,-2.0921,-2.0921,-2.0689,-2.0721,-2.0733,-2.0786,-2.0807,-2.0852,-2.0893,-2.0899,-2.0944,-2.0935,-2.0949,-2.0936,-2.0964,-2.0977,-2.0922,-2.0922,-2.0922,-2.0921,-2.0921,-2.0717,-2.0735,-2.0756,-2.0809,-2.0847,-2.0877,-2.0919,-2.0938,-2.0955,-2.0969,-2.0988,-2.0988,-2.0989,-2.0977,-2.0977,-2.0977,-2.0977,-2.0978,-2.0978,-2.0737,-2.076,-2.0793,-2.0835,-2.086,-2.0895,-2.0936,-2.0961,-2.0994,-2.1004,-2.1004,-2.1012,-2.0964,-2.095,-2.098,-2.0979,-2.0979,-2.0979,-2.0979,-2.0792,-2.0782,-2.0832,-2.0857,-2.0908,-2.0945,-2.0967,-2.1017,-2.104,-2.1061,-2.1066,-2.1028,-2.1031,-2.1028,-2.1017,-2.1062,-2.1062,-2.1062,-2.1062,-2.0815,-2.0818,-2.0873,-2.091,-2.095,-2.0974,-2.1031,-2.1063,-2.1095,-2.1111,-2.1108,-2.1095,-2.1091,-2.1097,-2.1093,-2.1082,-2.1143,-2.1143,-2.1143,-2.0849,-2.0857,-2.0901,-2.0931,-2.0972,-2.1007,-2.106,-2.1104,-2.1139,-2.1147,-2.1124,-2.112,-2.11,-2.1093,-2.1099,-2.1092,-2.1074,0,0]},{"header":{"parameterUnit":"m.s-1","parameterCategory":1,"la1":30.2992,"la2":30.254,"lo1":-89.0895,"lo2":-89.0443,"dy":0.0025,"dx":0.0025,"nx":19,"ny":19,"refTime":"2026-03-10T09:00:00:Z","depth":0,"parameterNumber":3,"parameterNumberName":"V-component_of_WINDS"},"data":[0,0,0,2.4894,2.4896,2.4952,2.4952,2.5021,2.5022,0,0,0,0,0,0,0,0,0,0,0,2.4873,2.4873,2.4894,2.4896,2.4952,2.4952,2.5021,2.5022,0,0,0,0,0,0,0,0,0,0,0,2.4873,2.4873,2.4874,2.4896,2.4952,2.4952,2.5021,2.498,0,0,0,0,0,0,0,0,0,0,2.4926,2.4901,2.4873,2.4874,2.4896,2.4952,2.4952,2.4978,2.4983,2.4993,0,2.4999,0,2.5011,2.5026,2.5026,0,0,0,2.49,2.4898,2.4917,2.4874,2.4897,2.4951,2.4928,2.4981,2.4986,2.4999,2.5,2.5003,2.5013,2.5026,2.5026,2.5071,2.5071,0,0,2.4897,2.4881,2.4913,2.492,2.4908,2.4926,2.4929,2.4984,2.4985,2.5001,2.5005,2.5014,2.5027,2.5027,2.5071,2.5071,0,0,0,2.4885,2.4879,2.4897,2.4917,2.4927,2.4927,2.4931,2.4983,2.499,2.5006,2.5014,2.5027,2.5028,2.5071,2.5071,2.5057,0,0,0,2.4883,2.4872,2.4895,2.4887,2.4926,2.4955,2.4929,2.4986,2.4992,2.5014,2.5027,2.5028,2.5071,2.5071,2.5057,2.5053,0,0,0,2.4871,2.4871,2.4877,2.4886,2.4909,2.4954,2.4965,2.4988,2.4998,2.5026,2.5028,2.5071,2.5071,2.5057,2.5053,2.5061,0,0,0,2.4854,2.4863,2.4877,2.4891,2.4908,2.4944,2.4964,2.4992,2.5015,2.5027,2.5071,2.5071,2.5058,2.5054,2.5061,2.5065,2.5065,0,0,2.4857,2.4863,2.4873,2.4886,2.4916,2.4937,2.4966,2.5001,2.5019,2.5054,2.5055,2.5057,2.5054,2.5061,2.5068,2.5067,0,0,0,2.4869,2.4876,2.4887,2.4907,2.4934,2.4958,2.4991,2.5005,2.5035,2.5033,2.5062,2.5061,2.5066,2.5068,2.5068,2.5075,2.5071,2.5071,2.5071,2.4851,2.4873,2.4891,2.492,2.494,2.4975,2.4994,2.5019,2.5035,2.5042,2.5052,2.5054,2.5056,2.5056,2.5062,2.5056,2.5056,2.5056,2.5056,2.4858,2.4872,2.4895,2.492,2.4944,2.4967,2.5003,2.5014,2.5041,2.5047,2.5053,2.5058,2.5055,2.5062,2.5055,2.5055,2.5055,2.5055,2.5055,2.485,2.486,2.4876,2.4909,2.4933,2.4963,2.4988,2.501,2.503,2.5036,2.5051,2.5051,2.5055,2.5042,2.5042,2.5042,2.5042,2.5042,2.5042,2.4834,2.4853,2.487,2.4901,2.4918,2.4943,2.4981,2.4999,2.5026,2.504,2.504,2.5057,2.505,2.5048,2.5042,2.5042,2.5042,2.5042,2.5042,2.4834,2.4838,2.4864,2.4881,2.4921,2.4945,2.4972,2.5009,2.5028,2.504,2.5057,2.5047,2.5055,2.5056,2.5054,2.505,2.505,2.505,2.505,2.4827,2.4833,2.4866,2.4892,2.4921,2.4949,2.4982,2.5013,2.5046,2.506,2.5064,2.5064,2.5063,2.5072,2.5072,2.5071,2.5072,2.5072,2.5072,2.4829,2.4839,2.4861,2.4891,2.4925,2.4955,2.4987,2.502,2.5058,2.5073,2.5072,2.5071,2.5071,2.507,2.5084,2.5083,2.5082,0,0]}]]